Theta_e
296 296 296 296 297 297 297 296 296 301 302 301 301 302 302 302 301 301 301 301 301 302 302 303 304 304 303
295 295 293 294 295 296 296 297 296 296 298 298 298 298 298 299 298 298 298 298 298 298 299 299 300 301 301
294 295 293 293 294 294 294 294 293 291 293 294 295 296 296 297 296 295 295 295 296 296 296 297 297 298 299
294 293 293 293 294 292 293 292 291 291 290 290 290 290 291 292 293 293 294 294 295 294 295 295 295 296 297
292 292 291 290 289 289 289 289 290 289 289 290 290 290 291 290 289 290 291 292 293 294 294 294 295 296 296
289 288 287 288 288 287 287 286 286 289 287 287 288 288 290 290 288 289 290 291 292 293 294 295 294 295 295
287 287 286 287 286 286 286 285 285 287 286 285 288 287 289 289 287 289 290 291 292 293 293 294 294 294 293
288 287 288 288 288 287 286 286 287 287 287 284 287 287 289 289 286 288 291 291 291 290 291 292 292 292 292
287 287 286 287 288 288 286 285 284 284 286 284 286 285 286 287 288 290 289 288 288 289 290 290 290 291 291
285 285 286 287 287 286 286 284 284 284 285 283 284 284 283 287 287 289 289 288 287 288 289 289 289 289 290
285 285 285 286 286 286 285 284 282 283 285 283 282 282 283 283 285 287 287 287 287 287 288 288 288 288 288
283 284 284 285 285 285 285 285 285 283 284 284 282 281 280 279 280 285 286 287 287 286 286 287 288 288 289
283 283 284 285 283 283 284 285 285 285 285 285 283 282 281 280 279 281 282 285 287 285 285 284 285 287 286
283 284 284 283 282 283 282 282 281 281 286 285 283 283 280 281 281 280 282 280 285 285 285 285 285 286 286
283 283 283 283 282 283 281 281 279 279 280 283 284 283 282 282 280 281 282 283 284 283 282 282 284 285 286
283 283 282 282 281 281 281 280 278 279 279 281 281 280 281 283 283 281 282 282 284 283 282 280 281 284 286
282 282 282 281 281 280 279 279 278 279 280 280 279 277 276 276 283 285 281 282 283 282 283 283 282 284 285
Wind_Speed
2 4 4 5 5 4 5 5 5 12 10 9 9 8 7 7 7 5 4 3 2 3 3 5 7 7 7
1 2 4 4 3 4 4 3 3 8 8 7 6 5 3 2 1 0 2 1 2 3 4 5 7 7 7
2 2 2 1 2 2 3 2 3 5 5 8 9 10 10 6 4 2 2 3 4 4 4 3 4 6 7
3 2 0 1 1 3 1 3 3 3 3 5 5 5 6 6 6 5 4 4 4 3 6 6 6 8 8
2 1 0 0 2 2 2 2 2 3 3 2 4 3 3 3 4 4 6 6 6 7 7 7 8 9 8
1 0 1 1 1 2 3 3 2 3 5 4 4 3 2 2 5 4 5 5 6 7 8 8 8 9 9
2 1 1 2 3 2 2 3 3 4 5 3 3 3 2 1 2 6 7 7 7 6 7 9 10 8 8
4 3 3 2 1 0 2 3 2 1 4 3 3 3 3 3 2 6 7 3 2 3 6 6 6 8 11
4 4 2 1 1 1 1 3 1 0 2 3 3 4 4 3 2 5 3 4 4 6 7 6 8 11 11
4 4 2 4 3 2 0 2 2 2 2 3 3 4 3 0 2 2 4 7 8 9 10 11 13 8 8
2 2 2 3 2 1 2 0 2 3 3 3 2 4 2 4 4 4 5 6 5 7 11 11 11 10 8
2 2 2 2 2 1 2 3 3 4 5 2 3 3 4 6 5 2 4 6 6 6 6 10 13 12 15
3 2 2 1 2 3 4 4 4 5 4 5 5 5 5 6 6 7 8 4 7 6 5 5 6 7 8
3 3 2 3 4 3 4 3 5 5 4 4 5 6 6 7 7 8 8 6 4 6 7 7 8 8 9
4 4 4 4 4 4 4 5 6 5 5 4 5 7 8 9 9 10 9 8 7 7 8 8 8 8 9
5 5 5 5 5 5 5 5 6 6 6 5 5 6 6 9 18 9 8 8 6 6 7 8 10 8 9
6 6 6 5 6 6 5 6 7 7 6 5 5 6 7 8 6 18 8 7 7 8 7 8 10 9 9
Wind_Direction
59 28 28 16 19 31 29 32 16 23 29 43 54 67 84 103 105 112 123 142 214 267 271 268 264 261 239
76 56 44 20 345 12 14 18 34 22 29 34 40 41 41 41 9 337 71 339 299 306 317 308 296 297 294
137 91 65 356 9 21 26 37 45 20 37 46 37 30 28 34 60 33 351 329 314 352 2 328 305 296 291
97 107 80 83 32 357 77 34 20 16 53 23 11 15 9 4 360 2 0 346 314 293 284 281 283 276 273
114 117 221 42 15 14 327 331 76 2 340 16 342 332 329 300 295 299 308 293 285 281 280 274 251 246 257
152 195 120 22 27 12 341 323 303 66 336 325 352 330 342 327 12 325 303 288 280 275 264 265 263 263 262
104 62 170 24 39 317 339 311 309 8 318 296 348 324 4 249 308 317 302 285 273 273 281 267 262 258 261
76 104 90 134 7 179 296 308 254 95 335 289 7 316 333 304 326 301 284 261 238 288 278 283 285 279 274
72 71 41 350 290 199 273 304 269 194 31 322 359 322 325 325 357 24 64 27 305 282 271 269 289 287 273
171 160 161 82 139 299 227 275 310 261 84 325 328 355 313 75 322 267 257 243 263 273 272 279 284 278 274
178 171 172 156 169 102 69 32 278 272 72 351 306 311 288 303 298 275 278 292 288 289 285 276 264 266 272
217 213 222 215 201 280 308 297 269 257 300 310 268 289 293 293 275 254 279 282 282 286 281 292 279 270 259
236 233 232 235 260 241 252 252 246 249 247 231 257 268 260 262 278 291 298 294 292 272 274 258 269 287 281
247 237 226 233 254 267 281 285 278 281 221 227 242 251 263 258 264 271 272 271 278 290 286 282 278 272 265
240 241 241 246 258 268 265 271 269 278 274 246 237 251 256 257 261 256 265 264 261 272 274 279 274 267 261
240 246 251 253 261 261 263 264 267 272 276 275 274 280 265 239 225 254 260 263 271 270 264 263 275 267 269
243 243 245 251 258 261 261 265 266 269 272 267 261 255 265 270 274 209 257 270 274 276 271 263 273 274 273